COSMOS 2436 (723)

Last updated on Oct. 25, 2020, 5:57 a.m. UTC

1 32395U 07065C   20298.26451402  .00000009  00000-0  10000-3 0  9998
2 32395  64.5422 262.0507 0014274 350.1350 242.1177  2.13102949 99793
UTC
Height (km)
Latitude
Longitude
Inclination
Orbital Period
UTC large
Height (km)
Speed (km/s)
/
Latitude / Longitude
Inclination (degrees)
Orbital Period (minutes)
Azimuth
Elevation
Range (km)
Doppler Factor
iOS Compass Heading
iOS Angle

Next 30 passes for location: Hong Kong

Rise time Rise Azimuth (degrees) Set time Set Azimuth (degrees) Duration Max altitude (degrees)

No matching passes for this satellites